Hovedside
METAR-TAF:

METAR-TAF

Lufthavner :

Villmanstrand lufthavn

Villmanstrand, Finland

breddegrad: 61-02-45N, lengdegrad: 028-08-55E, høyde over havet: 106 m

Gjeldene værobservasjon

Denne rapporten ble laget for 26 minutter siden, klokken 09:50 UTC
Vind 11 kt fra Øst-nordøst, skiftende mellom Nord-nordøst og Øst-sørøst
Temperatur 28°C
Luftfuktighet 48%
Trykk 1010 hPa
Sikt 10 km eller mer
Brutte skyer i en høyde av 4700 ft

METAR: EFLP 200950Z AUTO 06011KT 020V110 9999 BKN047 28/16 Q1010

Tid: 13:16 (10:16 UTC)


TAF: fraværende

Værobservasjoner og værvarsel for over 4000 flyplasser (METAR- og TAF-rapporter).

Tilgjengelige stasjoner er representert av de røde og gule prikkene på kartet.

Hold musepekeren over prikken for å se navnet på stasjonen.

Klikk så for å se værobservasjoner og -varsler.

For å forandre kartet kan du klikke på den grønne knappen med svart kryss for å zoome inn, på den grønne knappen med strek for å zoome ut, eller på de grønne pilene for å se tilstøtende kart.


METAR-TAF: